[[{"header":{"parameterUnit":"m.s-1","parameterCategory":1,"la1":30.2991,"la2":30.254,"lo1":-89.0895,"lo2":-89.0444,"dy":0.0017,"dx":0.0017,"nx":28,"ny":28,"refTime":"2025-08-09T03:00:00:Z","depth":0,"parameterNumber":2,"parameterNumberName":"U-component_of_WINDS"},"data":[0,0,0,0,0,0,0,0,0,0,0,0,0,0,0,0,0,0,0,0,0,0,0,0,0,0,0,0,0,0,0,0,0,0,0,0,0,0,0,0,0,0,0,0,0,0,0,0,0,0,0,0,0,0,0,0,0,0,-3.9757,-3.9757,0,-3.9789,-3.979,-3.979,-3.9672,-3.9668,-3.9665,-3.9661,-3.9693,-3.9697,-3.9701,0,0,0,0,0,0,0,0,0,0,0,0,0,-3.959,-3.9594,-3.9757,-3.9757,-3.9758,-3.9789,-3.979,-3.979,-3.9672,-3.9668,-3.9664,-3.966,-3.9692,-3.9697,-3.9701,0,0,0,0,0,0,0,0,0,0,0,0,0,-3.9647,-3.9595,-3.9757,-3.9703,-3.9698,-3.9789,-3.979,-3.979,-3.9673,-3.9668,-3.9663,-3.9658,-3.969,-3.9696,-3.9702,-3.9846,0,0,-3.9721,-3.9724,0,0,0,0,0,0,0,0,-3.9644,-3.9653,-3.971,-3.9707,-3.9702,-3.9721,-3.9742,-3.9809,-3.9675,-3.9683,-3.9661,-3.9655,-3.9707,-3.9711,-3.9729,-3.9848,-3.9849,-3.9722,-3.9725,-3.9728,-3.973,0,0,0,0,0,0,0,-3.964,-3.9651,-3.9769,-3.9711,-3.9706,-3.9676,-3.9678,-3.9754,-3.9724,-3.9682,-3.9673,-3.9679,-3.9703,-3.9723,-3.9729,-3.9849,-3.9721,-3.9727,-3.9731,-3.9733,-4.0086,-4.0091,0,0,0,0,0,0,-3.9643,-3.9648,-3.9768,-3.977,-3.9659,-3.9683,-3.9686,-3.972,-3.9723,-3.9718,-3.9683,-3.9673,-3.9715,-3.9721,-3.9729,-3.9896,-3.9728,-3.9734,-3.9737,-4.008,-4.0087,-4.0093,0,0,0,0,0,0,-3.964,-3.9655,-3.9767,-3.9707,-3.9719,-3.9692,-3.9731,-3.9724,-3.9743,-3.9724,-3.9718,-3.9709,-3.9711,-3.972,-3.9817,-3.9895,-3.9737,-3.9742,-4.0073,-4.0082,-4.009,-4.0231,0,0,0,0,0,0,-3.9636,-3.9655,-3.971,-3.9709,-3.9723,-3.9856,-3.9736,-3.9728,-3.9754,-3.9741,-3.9747,-3.9742,-3.9708,-3.9809,-3.9824,-3.9901,-3.9747,-4.0066,-4.0077,-4.0087,-4.022,-4.0244,-4.0264,0,0,0,0,0,-3.963,-3.9749,-3.9713,-3.9728,-3.9791,-3.9861,-3.9868,-3.9827,-3.9761,-3.9816,-3.9803,-3.9742,-3.9885,-3.982,-3.9835,-3.9916,-4.0061,-4.0074,-4.0086,-4.021,-4.0239,-4.0264,0,0,0,0,0,0,-3.9758,-3.9747,-3.9708,-3.983,-3.9847,-3.9841,-3.9908,-3.9859,-3.9895,-3.9881,-3.9828,-3.983,-3.9936,-3.9936,-3.9863,-4.0054,-3.9962,-3.9978,-4.005,-4.0078,-4.01,-4.0096,-3.9752,0,0,0,0,0,-3.9801,-3.9859,-3.9846,-3.9955,-3.9966,-3.9936,-3.9965,-3.9931,-3.9946,-3.9953,-3.9947,-3.9964,-4.0012,-4.0045,-4.0089,-4.022,-4.0218,-4.0283,-4.0305,-4.0324,-4.0338,-4.0404,-4.0432,-4.0135,-4.0135,-4.0134,0,0,-3.9889,-3.989,-3.993,-3.9981,-3.999,-4.005,-3.9943,-4.0011,-4.0055,-3.9963,-4.0054,-4.0051,-4.0066,-4.018,-4.023,-4.0183,-4.042,-4.034,-4.0355,-4.0358,-4.042,-4.0449,-4.0474,-4.0143,-4.0142,-4.014,0,0,-4.008,-4.0088,-4.0178,-4.019,-4.0205,-4.0185,-4.0207,-4.0208,-4.0202,-4.0292,-4.0224,-4.0275,-4.036,-4.0373,-4.0391,-4.0587,-4.0531,-4.0603,-4.0718,-4.0784,-4.0807,-4.0828,-4.0895,-4.092,-4.0617,-4.0618,-4.0618,0,-4.0187,-4.0275,-4.023,-4.0303,-4.0326,-4.0247,-4.0337,-4.035,-4.038,-4.0397,-4.0344,-4.0448,-4.0453,-4.0568,-4.0616,-4.0634,-4.0655,-4.06,-4.0808,-4.0828,-4.0846,-4.091,-4.0936,-4.0626,-4.0625,-4.0624,-4.0623,0,-4.0405,-4.0468,-4.0539,-4.0569,-4.06,-4.0682,-4.0647,-4.0685,-4.0649,-4.0633,-4.0726,-4.0729,-4.0771,-4.0796,-4.0762,-4.0906,-4.0876,-4.0817,-4.0722,-4.0884,-4.0942,-4.0967,-4.0638,-4.0635,-4.0632,-4.063,0,0,-4.0676,-4.068,-4.0706,-4.0718,-4.073,-4.0777,-4.0854,-4.0895,-4.0927,-4.0951,-4.1013,-4.1087,-4.1031,-4.1052,-4.1018,-4.1077,-4.1228,-4.101,-4.1009,-4.1048,-4.1385,-4.1427,-4.1456,-4.1193,-4.1197,-4.1201,-4.1383,0,-4.0861,-4.0993,-4.0954,-4.1086,-4.1142,-4.1068,-4.1135,-4.1149,-4.1137,-4.1182,-4.1168,-4.122,-4.1145,-4.1157,-4.1211,-4.1199,-4.1295,-4.1185,-4.1248,-4.1251,-4.1244,-4.1487,-4.1533,-4.1704,-4.1406,-4.141,-4.1412,0,-4.1094,-4.1126,-4.1264,-4.1265,-4.1287,-4.1348,-4.1381,-4.1427,-4.144,-4.1427,-4.1451,-4.1405,-4.1479,-4.1387,-4.1488,-4.1414,-4.1438,-4.1435,-4.1441,-4.1443,-4.1339,-4.1493,-4.1758,-4.1783,-4.1449,-4.1446,-4.1443,0,-4.1274,-4.1352,-4.1444,-4.1457,-4.1461,-4.1505,-4.1509,-4.1518,-4.1544,-4.1574,-4.1591,-4.163,-4.165,-4.168,-4.1646,-4.1582,-4.1751,-4.1656,-4.1741,-4.1742,-4.1778,-4.1775,-4.2047,-4.1798,-4.1798,-4.1797,-4.1797,0,-4.1483,-4.1569,-4.1524,-4.1581,-4.1675,-4.163,-4.1724,-4.172,-4.1728,-4.1781,-4.172,-4.1771,-4.1724,-4.177,-4.1744,-4.183,-4.1841,-4.1831,-4.1822,-4.1835,-4.1836,-4.1848,-4.1834,-4.1804,-4.1803,-4.1801,-4.18,0,-4.1699,-4.1672,-4.1767,-4.1764,-4.1765,-4.1834,-4.183,-4.1882,-4.1866,-4.1934,-4.1947,-4.1922,-4.1973,-4.1943,-4.1996,-4.1978,-4.2089,-4.2066,-4.2085,-4.2077,-4.2162,-4.2154,-4.2449,-4.2484,-4.2216,-4.2218,-4.222,0,-4.1832,-4.1897,-4.19,-4.1932,-4.1939,-4.1991,-4.2018,-4.1977,-4.2007,-4.2027,-4.2076,-4.2123,-4.2157,-4.2243,-4.2229,-4.2269,-4.2244,-4.2345,-4.2249,-4.2259,-4.2242,-4.2237,-4.2243,-4.2363,-4.2366,-4.2369,-4.2371,0,-4.2071,-4.2055,-4.2096,-4.2134,-4.2168,-4.2195,-4.2217,-4.2247,-4.2205,-4.2242,-4.2294,-4.2321,-4.2375,-4.2421,-4.2455,-4.2457,-4.2407,-4.2401,-4.2422,-4.2434,-4.2441,-4.2436,-4.2134,-4.2394,-4.2392,-4.239,-4.2389,-4.2388,-4.2248,-4.2301,-4.2311,-4.2359,-4.2372,-4.2394,-4.2441,-4.2432,-4.2474,-4.2515,-4.2488,-4.2549,-4.256,-4.26,-4.2609,-4.2656,-4.2615,-4.2646,-4.2654,-4.2661,-4.2672,-4.2437,-4.2662,-4.2662,-4.2661,-4.266,-4.266,0,-4.2481,-4.2484,-4.2529,-4.2562,-4.2599,-4.255,-4.2572,-4.2606,-4.2661,-4.2676,-4.2711,-4.2771,-4.2815,-4.2805,-4.2845,-4.2884,-4.2862,-4.2895,-4.2891,-4.2892,-4.2707,-4.2684,-4.2913,-4.2913,-4.2913,-4.2913,-4.2913,-4.2912,-4.2606,-4.2693,-4.2678,-4.277,-4.2773,-4.2832,-4.2848,-4.2868,-4.288,-4.2949,-4.2985,-4.2979,-4.2983,-4.3023,-4.3061,-4.3057,-4.3073,-4.3115,-4.3102,-4.293,-4.2905,-4.2881,-4.2858,-4.312,-4.312,-4.3282,-4.3284,-4.3285]},{"header":{"parameterUnit":"m.s-1","parameterCategory":1,"la1":30.2991,"la2":30.254,"lo1":-89.0895,"lo2":-89.0444,"dy":0.0017,"dx":0.0017,"nx":28,"ny":28,"refTime":"2025-08-09T03:00:00:Z","depth":0,"parameterNumber":3,"parameterNumberName":"V-component_of_WINDS"},"data":[0,0,0,0,0,0,0,0,0,0,0,0,0,0,0,0,0,0,0,0,0,0,0,0,0,0,0,0,0,0,0,0,0,0,0,0,0,0,0,0,0,0,0,0,0,0,0,0,0,0,0,0,0,0,0,0,0,0,-1.6653,-1.6654,0,-1.6693,-1.6694,-1.6694,-1.6666,-1.6665,-1.6664,-1.6662,-1.6703,-1.6705,-1.6707,0,0,0,0,0,0,0,0,0,0,0,0,0,-1.6551,-1.6553,-1.6653,-1.6654,-1.6654,-1.6693,-1.6694,-1.6694,-1.6666,-1.6665,-1.6663,-1.6662,-1.6702,-1.6705,-1.6707,0,0,0,0,0,0,0,0,0,0,0,0,0,-1.6594,-1.6554,-1.6653,-1.6645,-1.6645,-1.6693,-1.6694,-1.6694,-1.6667,-1.6665,-1.6663,-1.6661,-1.6701,-1.6704,-1.6708,-1.6766,0,0,-1.6718,-1.6719,0,0,0,0,0,0,0,0,-1.6592,-1.6598,-1.6646,-1.6646,-1.6646,-1.6673,-1.6672,-1.6718,-1.6667,-1.6658,-1.6662,-1.666,-1.6694,-1.6698,-1.671,-1.6768,-1.677,-1.6718,-1.672,-1.6722,-1.6723,0,0,0,0,0,0,0,-1.6589,-1.6596,-1.6669,-1.6647,-1.6646,-1.6639,-1.6643,-1.6681,-1.6686,-1.6659,-1.6657,-1.6662,-1.6694,-1.6706,-1.671,-1.677,-1.6718,-1.6721,-1.6723,-1.6725,-1.6876,-1.6878,0,0,0,0,0,0,-1.6587,-1.6594,-1.6668,-1.667,-1.6613,-1.6642,-1.6647,-1.6666,-1.6686,-1.6687,-1.6664,-1.6661,-1.6702,-1.6707,-1.6712,-1.678,-1.6722,-1.6725,-1.6727,-1.6874,-1.6876,-1.6878,0,0,0,0,0,0,-1.6585,-1.6593,-1.6666,-1.6631,-1.664,-1.6646,-1.6668,-1.6668,-1.668,-1.6689,-1.669,-1.6676,-1.67,-1.6707,-1.6752,-1.6781,-1.6726,-1.6729,-1.6871,-1.6874,-1.6877,-1.6918,0,0,0,0,0,0,-1.6582,-1.6593,-1.6616,-1.6632,-1.6642,-1.6707,-1.667,-1.667,-1.6686,-1.6683,-1.6701,-1.6702,-1.6699,-1.6747,-1.6756,-1.6785,-1.6732,-1.6869,-1.6873,-1.6876,-1.6914,-1.6922,-1.6928,0,0,0,0,0,-1.6578,-1.6626,-1.6617,-1.6626,-1.6671,-1.6709,-1.6714,-1.671,-1.6689,-1.6711,-1.6717,-1.6702,-1.6776,-1.6752,-1.6761,-1.6792,-1.6867,-1.6872,-1.6876,-1.6911,-1.692,-1.6928,0,0,0,0,0,0,-1.6614,-1.6628,-1.6618,-1.6673,-1.669,-1.6704,-1.6732,-1.6721,-1.6744,-1.674,-1.6733,-1.6738,-1.6785,-1.6793,-1.6766,-1.6848,-1.6818,-1.6825,-1.6841,-1.6851,-1.6858,-1.6855,-1.6735,0,0,0,0,0,-1.6628,-1.6658,-1.6668,-1.6716,-1.6724,-1.6727,-1.6743,-1.6738,-1.6755,-1.6762,-1.6771,-1.6788,-1.6815,-1.6833,-1.6859,-1.6914,-1.6917,-1.694,-1.6947,-1.6953,-1.6959,-1.6987,-1.6997,-1.6893,-1.6893,-1.6893,0,0,-1.6657,-1.6669,-1.6688,-1.6723,-1.6735,-1.6765,-1.6733,-1.6767,-1.6789,-1.6768,-1.6811,-1.6817,-1.6835,-1.6886,-1.6908,-1.6894,-1.6988,-1.6959,-1.6963,-1.6966,-1.6993,-1.7003,-1.7011,-1.6896,-1.6896,-1.6895,0,0,-1.6727,-1.6739,-1.6779,-1.6791,-1.681,-1.6811,-1.682,-1.6836,-1.6839,-1.6882,-1.6866,-1.6892,-1.6939,-1.6952,-1.6965,-1.7036,-1.7023,-1.7045,-1.7083,-1.7111,-1.7119,-1.7126,-1.7151,-1.716,-1.7051,-1.7051,-1.7051,0,-1.6761,-1.6807,-1.6801,-1.6835,-1.685,-1.6831,-1.6871,-1.6883,-1.6909,-1.692,-1.6903,-1.696,-1.6971,-1.7024,-1.7041,-1.7052,-1.7062,-1.7043,-1.7119,-1.7126,-1.7132,-1.7156,-1.7165,-1.7053,-1.7053,-1.7053,-1.7052,0,-1.6848,-1.6879,-1.6909,-1.6934,-1.6952,-1.6989,-1.6988,-1.7007,-1.7,-1.7002,-1.7045,-1.7057,-1.7084,-1.7096,-1.709,-1.7147,-1.7137,-1.7119,-1.7089,-1.7145,-1.7167,-1.7176,-1.7057,-1.7056,-1.7055,-1.7054,0,0,-1.6942,-1.6962,-1.6973,-1.6983,-1.7001,-1.7025,-1.706,-1.7086,-1.7102,-1.712,-1.7149,-1.7188,-1.7171,-1.7186,-1.718,-1.7205,-1.7259,-1.7184,-1.7184,-1.7197,-1.7321,-1.7334,-1.7345,-1.725,-1.7252,-1.7253,-1.7319,0,-1.7012,-1.7074,-1.7068,-1.7126,-1.7154,-1.7135,-1.7166,-1.718,-1.7182,-1.7206,-1.7208,-1.7236,-1.7212,-1.7221,-1.7244,-1.7248,-1.7284,-1.7243,-1.7276,-1.7277,-1.7272,-1.7356,-1.7371,-1.7433,-1.7328,-1.733,-1.7331,0,-1.7103,-1.7123,-1.7184,-1.7195,-1.7207,-1.7235,-1.7257,-1.728,-1.7294,-1.7294,-1.7309,-1.7299,-1.7333,-1.7302,-1.7348,-1.732,-1.7333,-1.7337,-1.7339,-1.7342,-1.7308,-1.7361,-1.7453,-1.7462,-1.7344,-1.7343,-1.7342,0,-1.7164,-1.7207,-1.7248,-1.7258,-1.7273,-1.7292,-1.7299,-1.7312,-1.7327,-1.7346,-1.7356,-1.7379,-1.7391,-1.7409,-1.7405,-1.7382,-1.7451,-1.742,-1.7452,-1.7452,-1.7468,-1.7467,-1.7563,-1.7476,-1.7476,-1.7476,-1.7476,0,-1.7243,-1.7281,-1.7276,-1.7302,-1.7343,-1.7335,-1.7376,-1.738,-1.7391,-1.7417,-1.7401,-1.7425,-1.7418,-1.7442,-1.7439,-1.7477,-1.7483,-1.7483,-1.7482,-1.7484,-1.7484,-1.7493,-1.7488,-1.7478,-1.7478,-1.7477,-1.7477,0,-1.732,-1.7318,-1.7362,-1.7372,-1.7375,-1.7405,-1.7413,-1.7437,-1.7437,-1.7469,-1.7476,-1.7477,-1.7503,-1.75,-1.753,-1.7528,-1.7575,-1.7569,-1.757,-1.7569,-1.76,-1.7597,-1.7705,-1.7718,-1.7624,-1.7625,-1.7625,0,-1.737,-1.7399,-1.7411,-1.7427,-1.7435,-1.7461,-1.7476,-1.7468,-1.7484,-1.7502,-1.7523,-1.7548,-1.7567,-1.761,-1.7613,-1.7635,-1.7629,-1.7665,-1.7633,-1.7634,-1.7629,-1.7627,-1.763,-1.7672,-1.7673,-1.7674,-1.7675,0,-1.746,-1.7457,-1.7479,-1.75,-1.7518,-1.7535,-1.755,-1.7564,-1.7558,-1.7576,-1.7603,-1.7618,-1.7648,-1.7672,-1.7693,-1.7699,-1.7686,-1.7685,-1.7693,-1.7696,-1.7696,-1.7696,-1.7588,-1.7682,-1.7682,-1.7681,-1.7681,-1.768,-1.7524,-1.7548,-1.756,-1.7584,-1.7595,-1.7609,-1.7631,-1.7633,-1.7655,-1.7678,-1.7673,-1.7702,-1.7714,-1.774,-1.7748,-1.7771,-1.7758,-1.777,-1.7773,-1.7776,-1.778,-1.7692,-1.7775,-1.7774,-1.7774,-1.7774,-1.7774,0,-1.7612,-1.7618,-1.7641,-1.7662,-1.7681,-1.7666,-1.7681,-1.7698,-1.7724,-1.7736,-1.7755,-1.7785,-1.7808,-1.7812,-1.7833,-1.7851,-1.7845,-1.7857,-1.7855,-1.7857,-1.7791,-1.7781,-1.7861,-1.7861,-1.7861,-1.7861,-1.7861,-1.7861,-1.766,-1.7699,-1.7697,-1.774,-1.7746,-1.7774,-1.7784,-1.7796,-1.7806,-1.7839,-1.7858,-1.786,-1.7869,-1.7891,-1.7911,-1.7911,-1.792,-1.7934,-1.7932,-1.787,-1.7861,-1.7853,-1.7844,-1.7936,-1.7936,-1.7996,-1.7996,-1.7997]}]]